Zurück zum Katalog

STARLINK-36407

AktivKommunikationSSO
NORAD 67612·PAYLOAD·🇺🇸 United States

Gestartet Jan 29, 2026 von Vandenberg Space Force Base

Loading…

Nächste Überflüge (nächste 24 Stunden)

TLE

AktuellSource: CelesTrak SupGP

Epoche: Sep 15, 2026, 03:22 UTC

1 67612C 26018Z   26258.14076389  .00017156  00000+0  53257-3 0  2582
2 67612  97.2850 321.7218 0000907  82.5977 215.1470 15.33430384    18

Verfolge STARLINK-36407 in Echtzeit mit AllMySat

Download on the App Store